Skip Page Navigation
NASA JPL Caltech
NASA Logo - Jet Propulsion Laboratory + View the NASA Portal
+ Center for Near-Earth Object Studies
JPL Home Earth Solar System Stars & Galaxies Technology
JPL Solar System Dynamics
BODIES ORBITS EPHEMERIDES TOOLS PHYSICAL DATA DISCOVERY FAQ SITE MAP
IMPORTANT: The SSD Announcement email list is now available. Major changes are coming in the near future, including possible hostname and/or URL changes. To be notified of such changes, subscribe to this email list.

Please visit this page for more details.


JPL Small-Body Database Browser
Search: [ help ]  
185341 (2006 VB38)
Classification: Main-belt Asteroid          SPK-ID: 2185341
Ephemeris | Orbit Diagram | Orbital Elements | Mission Design | Physical Parameters | Discovery Circumstances | Close-Approach Data ]

[ show orbit diagram ]
Orbital Elements at Epoch 2459000.5 (2020-May-31.0) TDB
Reference: JPL 12 (heliocentric ecliptic J2000)
 Element Value Uncertainty (1-sigma)   Units 
e .08532127797771144 7.1902e-08  
a 2.30844757764048 1.9346e-08 au
q 2.111487880171642 1.737e-07 au
i 4.018758880910931 6.8991e-06 deg
node 223.8397192554082 8.1519e-05 deg
peri 328.5092632892005 9.292e-05 deg
M 176.2394111296913 3.854e-05 deg
tp 2458373.339086391630
(2018-Sep-11.83908639)
0.0001386 TDB
period 1281.086491675051
3.51
1.6104e-05
4.409e-08
d
yr
n .2810114713872998 3.5326e-09 deg/d
Q 2.505407275109317 2.0997e-08 au
  Orbit Determination Parameters
   # obs. used (total)      218  
   data-arc span      5584 days (15.29 yr)  
   first obs. used      2002-10-11  
   last obs. used      2018-01-24  
   planetary ephem.      DE431  
   SB-pert. ephem.      SB431-N16  
   condition code      0  
   norm. resid. RMS      .60971  
   source      ORB  
   producer      Otto Matic  
   solution date      2018-Feb-06 07:59:24  

Additional Information
 Earth MOID = 1.11163 au 
 Jupiter MOID = 2.4578 au 
 T_jup = 3.578 
[ show covariance matrix ]

Ephemeris | Orbit Diagram | Orbital Elements | Mission Design | Physical Parameters | Discovery Circumstances | Close-Approach Data ]

Physical Parameter Table
Parameter Symbol Value Units Sigma Reference Notes
absolute magnitude H 17.1   n/a MPO436915  

185341 (2006 VB38)          Discovered 2006-Nov-12 by CSS at Catalina
Reference: 20080420/Numbers.arcLast Updated: 2008-04-23

[ show close-approach data ]
Alternate Designations
 2006 VB38 = 2005 LB16 
Ephemeris | Orbit Diagram | Orbital Elements | Mission Design | Physical Parameters | Discovery Circumstances | Close-Approach Data ]
ABOUT SSD CREDITS/AWARDS PRIVACY/COPYRIGHT GLOSSARY LINKS
FirstGov 2020-Feb-20 21:58 UT
(server date/time)  
NASA Home Page
Site Manager:   Ryan S. Park
Webmaster  Alan B. Chamberlin